Location: Cahas Mountain Overlook
(37.0833°N, 80.1000°W)
Time: 19:48:02
(UTC-05:00)

Courier 1B Rocket - Pass Details

Date: 11 December 2023
Orbit: 920 x 1202 km, 28.2° (Epoch: 29 February)

Event Time Altitude Azimuth Distance (km) Brightness Sun altitude
Rises 10:18:10 0° 242° (WSW) 3,967 8.2 24.0°
Reaches altitude 10° 10:21:16 10° 234° (SW) 2,966 7.7 24.3°
Maximum altitude 10:27:45 36° 171° (S) 1,613 8.0 24.9°
Drops below altitude 10° 10:33:50 10° 107° (ESE) 2,778 8.1 25.5°
Sets 10:36:38 0° 99° (E) 3,687 8.5 25.7°
